QPF
0.00 0.00 0.00 0.00 0.00 0.00 0.00 0.00 0.00 0.00 0.00 0.00 0.00 0.00 0.00 0.00 0.00 0.00 0.00 0.00 0.00 0.00 0.00 0.00 0.00 0.00 0.00 0.00 0.00 0.00 0.00 0.00 0.00 0.00 0.00 0.00 0.00 0.00 0.00 0.00 0.00 0.00
0.00 0.00 0.00 0.00 0.00 0.00 0.00 0.00 0.00 0.00 0.00 0.00 0.00 0.00 0.00 0.00 0.00 0.00 0.00 0.00 0.00 0.00 0.00 0.00 0.00 0.00 0.00 0.00 0.00 0.00 0.00 0.00 0.00 0.00 0.00 0.00 0.00 0.00 0.00 0.00 0.00 0.00
0.00 0.00 0.00 0.00 0.00 0.00 0.00 0.00 0.00 0.00 0.00 0.00 0.00 0.00 0.00 0.00 0.00 0.00 0.00 0.00 0.00 0.00 0.00 0.00 0.00 0.00 0.00 0.00 0.00 0.00 0.00 0.00 0.00 0.00 0.00 0.00 0.00 0.00 0.00 0.00 0.00 0.00
0.00 0.00 0.00 0.00 0.00 0.00 0.00 0.00 0.00 0.00 0.00 0.00 0.00 0.00 0.00 0.00 0.00 0.00 0.00 0.00 0.00 0.00 0.00 0.00 0.00 0.00 0.00 0.00 0.00 0.00 0.00 0.00 0.00 0.00 0.00 0.00 0.00 0.00 0.00 0.00 0.00 0.00
0.00 0.00 0.00 0.00 0.00 0.00 0.00 0.00 0.00 0.00 0.00 0.00 0.00 0.00 0.00 0.00 0.00 0.00 0.00 0.00 0.00 0.00 0.00 0.00 0.00 0.00 0.00 0.00 0.00 0.00 0.00 0.00 0.00 0.00 0.00 0.00 0.00 0.00 0.00 0.00 0.00 0.00
0.00 0.00 0.00 0.00 0.00 0.00 0.00 0.00 0.00 0.00 0.00 0.00 0.00 0.00 0.00 0.00 0.00 0.00 0.00 0.00 0.00 0.00 0.00 0.00 0.00 0.00 0.00 0.00 0.00 0.00 0.00 0.00 0.00 0.00 0.00 0.00 0.00 0.00 0.00 0.00 0.00 0.00
0.00 0.00 0.00 0.00 0.00 0.00 0.00 0.00 0.00 0.00 0.00 0.00 0.00 0.00 0.00 0.00 0.00 0.00 0.00 0.00 0.00 0.00 0.00 0.00 0.00 0.00 0.00 0.00 0.00 0.00 0.00 0.00 0.00 0.00 0.00 0.00 0.00 0.00 0.00 0.00 0.00 0.00
0.00 0.00 0.00 0.00 0.00 0.00 0.00 0.00 0.00 0.00 0.00 0.00 0.00 0.00 0.00 0.00 0.00 0.00 0.00 0.00 0.00 0.00 0.00 0.00 0.00 0.00 0.00 0.00 0.00 0.00 0.00 0.00 0.00 0.00 0.00 0.00 0.00 0.00 0.00 0.00 0.00 0.00
0.00 0.00 0.00 0.00 0.00 0.00 0.00 0.00 0.00 0.00 0.00 0.00 0.00 0.00 0.00 0.00 0.00 0.00 0.00 0.00 0.00 0.00 0.00 0.00 0.00 0.00 0.00 0.00 0.00 0.00 0.00 0.00 0.00 0.00 0.00 0.00 0.00 0.00 0.00 0.00 0.00 0.00
0.00 0.00 0.00 0.00 0.00 0.00 0.00 0.00 0.00 0.00 0.00 0.00 0.00 0.00 0.00 0.00 0.00 0.00 0.00 0.00 0.00 0.00 0.00 0.00 0.00 0.00 0.00 0.00 0.00 0.00 0.00 0.00 0.00 0.00 0.00 0.00 0.00 0.00 0.00 0.00 0.00 0.00
0.00 0.00 0.00 0.00 0.00 0.00 0.00 0.00 0.00 0.00 0.00 0.00 0.00 0.00 0.00 0.00 0.00 0.00 0.00 0.00 0.00 0.00 0.00 0.00 0.00 0.00 0.00 0.00 0.00 0.00 0.00 0.00 0.00 0.00 0.00 0.00 0.00 0.00 0.00 0.00 0.00 0.00
0.00 0.00 0.00 0.00 0.00 0.00 0.00 0.00 0.00 0.00 0.00 0.00 0.00 0.00 0.00 0.00 0.00 0.00 0.00 0.00 0.00 0.00 0.00 0.00 0.00 0.00 0.00 0.00 0.00 0.00 0.00 0.00 0.00 0.00 0.00 0.00 0.00 0.00 0.00 0.00 0.00 0.00
0.00 0.00 0.00 0.00 0.00 0.00 0.00 0.00 0.00 0.00 0.00 0.00 0.00 0.00 0.00 0.00 0.00 0.00 0.00 0.00 0.00 0.00 0.00 0.00 0.00 0.00 0.00 0.00 0.00 0.00 0.00 0.00 0.00 0.00 0.00 0.00 0.00 0.00 0.00 0.00 0.00 0.00
0.00 0.00 0.00 0.00 0.00 0.00 0.00 0.00 0.00 0.00 0.00 0.00 0.00 0.00 0.00 0.00 0.00 0.00 0.00 0.00 0.00 0.00 0.00 0.00 0.00 0.00 0.00 0.00 0.00 0.00 0.00 0.00 0.00 0.00 0.00 0.00 0.00 0.00 0.00 0.00 0.00 0.00
0.00 0.00 0.00 0.00 0.00 0.00 0.00 0.00 0.00 0.00 0.00 0.00 0.00 0.00 0.00 0.00 0.00 0.00 0.00 0.00 0.00 0.00 0.00 0.00 0.00 0.00 0.00 0.00 0.00 0.00 0.00 0.00 0.00 0.00 0.00 0.00 0.00 0.00 0.00 0.00 0.00 0.00
0.00 0.00 0.00 0.00 0.00 0.00 0.00 0.00 0.00 0.00 0.00 0.00 0.00 0.00 0.00 0.00 0.00 0.00 0.00 0.00 0.00 0.00 0.00 0.00 0.00 0.00 0.00 0.00 0.00 0.00 0.01 0.00 0.00 0.00 0.00 0.00 0.00 0.00 0.00 0.00 0.00 0.00
0.00 0.00 0.00 0.00 0.00 0.00 0.00 0.00 0.00 0.00 0.00 0.00 0.00 0.00 0.00 0.00 0.00 0.00 0.00 0.00 0.00 0.00 0.00 0.00 0.00 0.00 0.00 0.00 0.00 0.01 0.01 0.02 0.01 0.01 0.00 0.00 0.00 0.00 0.00 0.00 0.00 0.00
0.00 0.00 0.00 0.00 0.00 0.00 0.00 0.00 0.00 0.00 0.00 0.00 0.00 0.00 0.00 0.00 0.00 0.00 0.00 0.00 0.00 0.00 0.00 0.00 0.00 0.00 0.00 0.00 0.00 0.01 0.01 0.02 0.03 0.03 0.02 0.01 0.01 0.01 0.00 0.00 0.00 0.00
0.00 0.00 0.00 0.00 0.00 0.00 0.00 0.00 0.00 0.00 0.00 0.00 0.00 0.00 0.00 0.00 0.00 0.00 0.00 0.00 0.00 0.00 0.00 0.00 0.00 0.00 0.00 0.00 0.00 0.01 0.01 0.02 0.03 0.03 0.02 0.02 0.01 0.01 0.00 0.00 0.00 0.00
0.00 0.00 0.00 0.00 0.00 0.00 0.00 0.00 0.00 0.00 0.00 0.00 0.00 0.00 0.00 0.00 0.00 0.00 0.00 0.00 0.00 0.00 0.00 0.00 0.00 0.00 0.00 0.00 0.00 0.01 0.01 0.01 0.02 0.02 0.03 0.03 0.03 0.02 0.01 0.01 0.00 0.00
0.00 0.00 0.00 0.00 0.00 0.00 0.00 0.00 0.00 0.00 0.00 0.00 0.00 0.00 0.00 0.00 0.00 0.00 0.00 0.00 0.00 0.00 0.00 0.00 0.00 0.00 0.00 0.00 0.01 0.01 0.01 0.01 0.04 0.04 0.04 0.04 0.03 0.02 0.01 0.00 0.00 0.00
0.00 0.00 0.00 0.00 0.00 0.00 0.00 0.00 0.00 0.00 0.00 0.00 0.00 0.00 0.00 0.00 0.00 0.00 0.00 0.00 0.00 0.00 0.00 0.00 0.00 0.00 0.00 0.00 0.01 0.01 0.02 0.05 0.06 0.06 0.06 0.05 0.04 0.01 0.00 0.00 0.00 0.00
0.00 0.00 0.00 0.00 0.00 0.00 0.00 0.00 0.00 0.00 0.00 0.00 0.00 0.00 0.00 0.00 0.00 0.00 0.00 0.00 0.00 0.00 0.00 0.00 0.00 0.00 0.00 0.01 0.01 0.01 0.03 0.07 0.05 0.03 0.02 0.02 0.02 0.01 0.01 0.02 0.01 0.01
0.00 0.00 0.00 0.00 0.00 0.00 0.00 0.00 0.00 0.00 0.00 0.00 0.00 0.00 0.00 0.00 0.00 0.00 0.00 0.00 0.00 0.00 0.00 0.00 0.00 0.00 0.00 0.01 0.01 0.01 0.05 0.07 0.03 0.01 0.01 0.01 0.00 0.00 0.01 0.01 0.01 0.02
0.00 0.00 0.00 0.00 0.00 0.00 0.00 0.00 0.00 0.00 0.00 0.00 0.00 0.00 0.00 0.00 0.00 0.00 0.00 0.00 0.00 0.00 0.00 0.00 0.00 0.00 0.00 0.00 0.01 0.01 0.03 0.03 0.02 0.01 0.01 0.00 0.00 0.00 0.00 0.00 0.00 0.01
0.00 0.00 0.00 0.00 0.00 0.00 0.00 0.00 0.00 0.00 0.00 0.00 0.00 0.00 0.00 0.00 0.00 0.00 0.00 0.00 0.00 0.00 0.00 0.00 0.00 0.00 0.00 0.00 0.01 0.01 0.01 0.01 0.01 0.01 0.01 0.01 0.00 0.00 0.00 0.00 0.00 0.00
MSLP
1027.57 1027.49 1027.42 1027.30 1027.26 1027.14 1027.06 1026.97 1026.94 1026.94 1026.90 1026.78 1026.69 1026.49 1026.42 1026.26 1026.09 1026.02 1025.94 1025.90 1025.81 1025.78 1025.78 1025.78 1025.78 1025.73 1025.69 1025.66 1025.66 1025.57 1025.49 1025.42 1025.30 1025.21 1025.21 1025.18 1025.14 1025.14 1025.09 1025.09 1025.09 1025.09
1027.18 1027.14 1026.94 1026.81 1026.78 1026.73 1026.69 1026.69 1026.69 1026.69 1026.61 1026.54 1026.42 1026.26 1026.14 1025.97 1025.81 1025.73 1025.66 1025.61 1025.54 1025.49 1025.49 1025.49 1025.54 1025.49 1025.45 1025.42 1025.38 1025.38 1025.26 1025.14 1025.09 1024.97 1024.94 1024.90 1024.81 1024.81 1024.78 1024.78 1024.78 1024.78
1026.69 1026.73 1026.69 1026.61 1026.57 1026.54 1026.54 1026.45 1026.42 1026.33 1026.30 1026.18 1026.14 1026.06 1025.90 1025.73 1025.57 1025.49 1025.42 1025.33 1025.30 1025.30 1025.30 1025.33 1025.30 1025.26 1025.21 1025.18 1025.09 1025.06 1024.94 1024.85 1024.81 1024.73 1024.73 1024.66 1024.61 1024.57 1024.49 1024.45 1024.45 1024.45
1026.21 1026.26 1026.30 1026.26 1026.18 1026.18 1026.18 1026.21 1026.14 1026.06 1025.97 1025.97 1025.94 1025.81 1025.69 1025.54 1025.42 1025.26 1025.18 1025.14 1025.18 1025.14 1025.14 1025.09 1025.06 1025.02 1024.97 1024.90 1024.85 1024.73 1024.61 1024.54 1024.45 1024.45 1024.42 1024.33 1024.30 1024.26 1024.21 1024.21 1024.14 1024.14
1025.78 1025.81 1025.85 1025.85 1025.81 1025.78 1025.85 1025.85 1025.81 1025.81 1025.78 1025.69 1025.66 1025.57 1025.49 1025.33 1025.21 1025.14 1025.09 1025.06 1025.02 1024.94 1024.94 1024.90 1024.85 1024.78 1024.69 1024.61 1024.49 1024.38 1024.26 1024.18 1024.09 1024.09 1024.06 1024.02 1023.97 1023.97 1023.93 1023.90 1023.90 1023.90
1025.38 1025.38 1025.42 1025.49 1025.49 1025.49 1025.54 1025.54 1025.57 1025.61 1025.57 1025.49 1025.38 1025.30 1025.18 1025.09 1025.09 1025.06 1024.97 1024.94 1024.85 1024.81 1024.78 1024.69 1024.66 1024.54 1024.42 1024.30 1024.14 1023.97 1023.85 1023.78 1023.70 1023.73 1023.70 1023.66 1023.61 1023.58 1023.58 1023.58 1023.58 1023.61
1024.97 1025.02 1025.06 1025.09 1025.18 1025.21 1025.21 1025.26 1025.30 1025.30 1025.30 1025.26 1025.18 1025.09 1025.02 1024.94 1024.90 1024.85 1024.81 1024.78 1024.73 1024.69 1024.66 1024.54 1024.45 1024.30 1024.09 1023.97 1023.85 1023.70 1023.58 1023.46 1023.34 1023.38 1023.38 1023.34 1023.29 1023.26 1023.22 1023.22 1023.22 1023.22
1024.61 1024.66 1024.69 1024.81 1024.94 1024.97 1024.97 1024.97 1025.06 1025.09 1025.09 1025.06 1024.94 1024.78 1024.73 1024.69 1024.69 1024.69 1024.66 1024.66 1024.61 1024.54 1024.42 1024.30 1024.14 1023.93 1023.78 1023.66 1023.53 1023.41 1023.34 1023.22 1023.09 1023.09 1023.09 1023.05 1023.05 1022.97 1022.93 1022.93 1022.93 1022.93
1024.30 1024.33 1024.42 1024.49 1024.61 1024.66 1024.73 1024.73 1024.73 1024.78 1024.78 1024.73 1024.61 1024.49 1024.45 1024.42 1024.42 1024.45 1024.45 1024.45 1024.42 1024.30 1024.21 1024.06 1023.90 1023.73 1023.53 1023.41 1023.26 1023.14 1023.02 1022.90 1022.78 1022.73 1022.73 1022.70 1022.70 1022.66 1022.61 1022.61 1022.66 1022.61
1024.02 1024.06 1024.14 1024.18 1024.26 1024.33 1024.38 1024.38 1024.42 1024.42 1024.38 1024.33 1024.26 1024.21 1024.18 1024.14 1024.18 1024.18 1024.21 1024.26 1024.18 1024.09 1024.02 1023.85 1023.70 1023.46 1023.29 1023.09 1022.93 1022.82 1022.73 1022.58 1022.46 1022.41 1022.41 1022.38 1022.29 1022.26 1022.26 1022.26 1022.26 1022.26
1023.73 1023.78 1023.85 1023.85 1023.90 1023.97 1023.97 1024.02 1024.06 1024.06 1024.02 1023.97 1023.97 1023.93 1023.93 1023.93 1023.93 1023.93 1023.97 1023.97 1023.93 1023.85 1023.70 1023.53 1023.34 1023.09 1022.85 1022.66 1022.49 1022.38 1022.26 1022.14 1022.02 1021.97 1021.90 1021.85 1021.82 1021.82 1021.73 1021.73 1021.73 1021.73
1023.46 1023.53 1023.53 1023.49 1023.53 1023.58 1023.61 1023.66 1023.70 1023.66 1023.61 1023.58 1023.61 1023.61 1023.66 1023.70 1023.73 1023.73 1023.73 1023.70 1023.61 1023.53 1023.38 1023.22 1023.05 1022.82 1022.53 1022.26 1022.09 1022.05 1021.93 1021.82 1021.70 1021.61 1021.49 1021.41 1021.41 1021.38 1021.34 1021.26 1021.17 1021.14
1023.14 1023.14 1023.17 1023.17 1023.14 1023.17 1023.26 1023.34 1023.34 1023.29 1023.29 1023.29 1023.29 1023.34 1023.41 1023.49 1023.53 1023.53 1023.46 1023.41 1023.29 1023.26 1023.09 1022.93 1022.70 1022.46 1022.17 1021.93 1021.78 1021.73 1021.66 1021.58 1021.46 1021.29 1021.14 1021.02 1020.90 1020.82 1020.73 1020.70 1020.61 1020.53
1022.73 1022.78 1022.82 1022.82 1022.82 1022.85 1022.90 1022.93 1022.97 1022.93 1022.93 1022.93 1023.02 1023.09 1023.17 1023.26 1023.29 1023.29 1023.17 1023.14 1023.02 1022.93 1022.82 1022.70 1022.46 1022.22 1021.97 1021.73 1021.53 1021.41 1021.29 1021.17 1021.02 1020.85 1020.70 1020.53 1020.29 1020.17 1020.09 1020.05 1019.97 1019.90
1022.41 1022.46 1022.49 1022.49 1022.53 1022.53 1022.53 1022.53 1022.58 1022.61 1022.66 1022.73 1022.82 1022.85 1022.90 1022.93 1022.97 1022.97 1022.97 1022.85 1022.73 1022.61 1022.46 1022.34 1022.17 1021.90 1021.66 1021.46 1021.29 1021.14 1021.02 1020.85 1020.66 1020.46 1020.29 1020.05 1019.78 1019.53 1019.38 1019.29 1019.29 1019.26
1022.14 1022.17 1022.22 1022.26 1022.26 1022.22 1022.17 1022.22 1022.29 1022.38 1022.46 1022.53 1022.58 1022.61 1022.70 1022.73 1022.73 1022.73 1022.70 1022.58 1022.46 1022.29 1022.17 1022.02 1021.82 1021.53 1021.17 1020.85 1020.53 1020.41 1020.38 1020.22 1019.97 1019.78 1019.61 1019.41 1019.17 1018.90 1018.58 1018.46 1018.41 1018.46
1021.93 1021.93 1021.97 1021.97 1021.93 1021.93 1021.93 1021.93 1022.02 1022.14 1022.22 1022.29 1022.38 1022.41 1022.46 1022.49 1022.49 1022.46 1022.38 1022.22 1022.09 1021.90 1021.78 1021.61 1021.38 1021.14 1020.73 1020.29 1019.85 1019.49 1019.29 1019.14 1019.02 1018.78 1018.66 1018.53 1018.34 1018.17 1017.85 1017.49 1017.46 1017.46
1021.53 1021.61 1021.66 1021.66 1021.66 1021.66 1021.70 1021.70 1021.82 1021.93 1022.05 1022.09 1022.17 1022.22 1022.22 1022.22 1022.17 1022.05 1021.93 1021.82 1021.70 1021.49 1021.34 1021.14 1020.90 1020.49 1020.05 1019.58 1019.09 1018.70 1018.46 1018.26 1018.02 1017.78 1017.53 1017.34 1017.14 1017.02 1016.85 1016.66 1016.46 1016.49
1021.22 1021.29 1021.34 1021.38 1021.41 1021.46 1021.46 1021.53 1021.66 1021.82 1021.85 1021.97 1022.05 1022.02 1022.02 1021.93 1021.78 1021.61 1021.46 1021.34 1021.26 1021.09 1020.85 1020.61 1020.38 1019.90 1019.46 1018.93 1018.49 1018.05 1017.70 1017.46 1017.17 1016.90 1016.61 1016.26 1015.97 1015.78 1015.58 1015.46 1015.41 1015.61
1020.85 1020.93 1021.02 1021.09 1021.17 1021.22 1021.34 1021.41 1021.53 1021.66 1021.78 1021.85 1021.90 1021.82 1021.73 1021.53 1021.38 1021.26 1021.09 1020.97 1020.85 1020.66 1020.41 1020.14 1019.85 1019.41 1018.93 1018.41 1017.93 1017.46 1017.02 1016.66 1016.38 1016.09 1015.82 1015.41 1015.05 1014.73 1014.49 1014.34 1014.38 1014.66
1020.41 1020.53 1020.70 1020.82 1020.90 1021.02 1021.17 1021.29 1021.41 1021.53 1021.66 1021.66 1021.66 1021.53 1021.38 1021.22 1021.05 1020.93 1020.70 1020.49 1020.34 1020.09 1019.90 1019.58 1019.22 1018.73 1018.22 1017.70 1017.17 1016.70 1016.26 1015.90 1015.61 1015.34 1015.05 1014.61 1014.14 1013.78 1013.46 1013.29 1013.34 1013.70
1019.97 1020.17 1020.29 1020.46 1020.66 1020.78 1020.97 1021.05 1021.17 1021.29 1021.41 1021.38 1021.34 1021.22 1021.05 1020.82 1020.58 1020.34 1020.09 1019.90 1019.73 1019.61 1019.49 1019.14 1018.70 1018.17 1017.66 1017.05 1016.53 1016.09 1015.66 1015.34 1015.05 1014.73 1014.29 1013.82 1013.38 1012.97 1012.66 1012.53 1012.61 1012.90
1019.38 1019.70 1019.93 1020.09 1020.29 1020.49 1020.61 1020.82 1020.90 1021.02 1021.09 1021.14 1021.14 1020.93 1020.70 1020.38 1020.09 1019.82 1019.61 1019.49 1019.38 1019.26 1019.14 1018.78 1018.29 1017.70 1017.22 1016.58 1016.02 1015.49 1015.14 1014.85 1014.49 1014.05 1013.70 1013.38 1013.02 1012.70 1012.41 1012.26 1012.22 1012.34
1018.78 1019.14 1019.46 1019.70 1019.93 1020.09 1020.26 1020.38 1020.49 1020.58 1020.70 1020.73 1020.78 1020.58 1020.29 1020.02 1019.78 1019.61 1019.41 1019.26 1019.02 1018.78 1018.58 1018.34 1017.73 1017.14 1016.58 1015.97 1015.46 1014.97 1014.61 1014.26 1013.90 1013.70 1013.53 1013.22 1012.82 1012.53 1012.38 1012.26 1012.14 1012.02
1018.17 1018.58 1018.93 1019.26 1019.49 1019.66 1019.85 1020.02 1020.09 1020.22 1020.34 1020.46 1020.46 1020.34 1020.05 1019.85 1019.58 1019.29 1018.97 1018.66 1018.46 1018.17 1017.90 1017.61 1017.14 1016.58 1016.09 1015.61 1015.05 1014.53 1014.14 1013.82 1013.61 1013.46 1013.29 1013.05 1012.82 1012.53 1012.41 1012.34 1012.22 1012.02
1017.66 1018.05 1018.41 1018.78 1019.05 1019.29 1019.53 1019.66 1019.78 1019.97 1020.09 1020.14 1020.02 1019.85 1019.58 1019.34 1019.09 1018.90 1018.61 1018.26 1017.97 1017.73 1017.41 1017.17 1016.90 1016.38 1015.90 1015.26 1014.66 1014.14 1013.66 1013.49 1013.38 1013.29 1013.17 1013.05 1012.82 1012.49 1012.38 1012.34 1012.41 1012.38
Thickness
5237 5232 5228 5223 5218 5213 5208 5204 5200 5196 5192 5189 5185 5183 5180 5179 5177 5175 5173 5171 5169 5168 5167 5166 5165 5164 5164 5164 5164 5164 5164 5165 5166 5167 5168 5169 5170 5172 5173 5175 5177 5181
5236 5231 5227 5223 5218 5213 5208 5203 5199 5195 5191 5189 5185 5183 5180 5178 5177 5175 5173 5171 5169 5168 5166 5164 5163 5162 5161 5161 5161 5161 5161 5161 5162 5162 5163 5164 5164 5166 5168 5169 5171 5174
5236 5231 5226 5222 5217 5212 5208 5203 5199 5195 5191 5188 5186 5183 5180 5178 5177 5175 5173 5171 5169 5167 5165 5163 5162 5160 5159 5158 5158 5158 5158 5157 5157 5158 5158 5159 5160 5161 5162 5164 5165 5168
5236 5231 5225 5221 5217 5212 5207 5203 5199 5195 5191 5188 5185 5182 5180 5178 5176 5175 5173 5171 5169 5166 5164 5162 5160 5159 5158 5156 5155 5155 5155 5155 5154 5154 5153 5154 5155 5156 5157 5158 5160 5162
5235 5231 5225 5220 5216 5211 5207 5202 5198 5194 5191 5187 5185 5182 5180 5178 5176 5174 5172 5170 5168 5166 5164 5162 5160 5158 5157 5155 5154 5153 5153 5153 5151 5150 5150 5150 5150 5151 5151 5153 5154 5156
5235 5230 5225 5220 5215 5210 5206 5201 5197 5193 5190 5186 5183 5181 5179 5177 5175 5173 5171 5169 5167 5165 5163 5161 5159 5157 5155 5154 5153 5152 5151 5150 5149 5148 5148 5147 5147 5147 5147 5148 5148 5150
5233 5229 5224 5219 5214 5209 5205 5200 5196 5191 5188 5185 5182 5180 5177 5175 5173 5171 5169 5167 5165 5164 5162 5160 5158 5156 5155 5153 5151 5150 5149 5148 5147 5145 5144 5144 5144 5143 5144 5143 5144 5144
5232 5227 5223 5218 5212 5208 5203 5199 5195 5190 5186 5183 5180 5178 5176 5173 5172 5170 5167 5165 5163 5162 5160 5158 5158 5156 5154 5152 5151 5149 5147 5146 5146 5144 5143 5142 5141 5141 5141 5140 5140 5140
5230 5225 5221 5216 5211 5207 5202 5198 5194 5189 5185 5182 5179 5177 5175 5172 5170 5167 5165 5164 5161 5160 5159 5157 5156 5155 5153 5152 5150 5148 5147 5145 5144 5143 5141 5140 5140 5139 5139 5138 5137 5137
5228 5223 5219 5215 5210 5205 5201 5196 5192 5189 5185 5181 5178 5175 5172 5170 5168 5165 5163 5162 5159 5158 5157 5156 5155 5154 5153 5152 5150 5149 5147 5145 5144 5142 5141 5139 5139 5138 5138 5137 5136 5136
5226 5221 5216 5213 5208 5204 5200 5195 5192 5188 5184 5181 5177 5173 5171 5168 5165 5163 5161 5159 5158 5157 5155 5154 5154 5154 5153 5152 5151 5149 5147 5146 5144 5143 5141 5140 5139 5138 5138 5137 5137 5137
5223 5219 5214 5210 5207 5202 5198 5193 5190 5187 5183 5180 5175 5172 5169 5165 5163 5161 5159 5157 5156 5155 5154 5154 5153 5152 5153 5152 5151 5150 5148 5147 5145 5143 5141 5140 5139 5139 5138 5138 5138 5139
5221 5216 5212 5208 5204 5201 5196 5192 5188 5185 5182 5178 5174 5171 5167 5163 5160 5158 5156 5155 5154 5153 5152 5151 5151 5151 5152 5151 5150 5149 5148 5147 5145 5144 5142 5141 5140 5140 5140 5139 5140 5140
5219 5214 5209 5206 5202 5198 5194 5190 5187 5183 5180 5176 5172 5169 5165 5161 5158 5155 5154 5152 5151 5151 5150 5149 5150 5150 5150 5150 5150 5148 5148 5146 5146 5145 5144 5143 5142 5142 5141 5141 5141 5142
5217 5212 5207 5203 5200 5196 5192 5188 5185 5181 5178 5175 5171 5167 5163 5159 5156 5153 5151 5150 5149 5148 5148 5147 5147 5148 5149 5149 5149 5148 5148 5147 5146 5146 5145 5145 5145 5145 5144 5144 5144 5144
5214 5209 5205 5201 5197 5194 5190 5186 5183 5179 5175 5172 5168 5164 5161 5157 5154 5151 5149 5147 5146 5145 5145 5145 5145 5146 5147 5149 5149 5149 5149 5148 5148 5148 5148 5147 5147 5147 5148 5148 5147 5147
5212 5207 5202 5198 5195 5191 5188 5184 5180 5176 5172 5169 5166 5162 5159 5155 5152 5150 5147 5145 5144 5143 5143 5142 5143 5144 5146 5148 5150 5151 5152 5151 5151 5152 5152 5151 5151 5151 5152 5153 5152 5151
5210 5205 5199 5196 5192 5188 5185 5181 5177 5173 5169 5166 5162 5159 5156 5153 5151 5148 5146 5144 5142 5142 5141 5140 5140 5143 5145 5148 5150 5152 5153 5154 5154 5155 5156 5157 5157 5157 5157 5157 5157 5156
5208 5203 5197 5193 5189 5186 5182 5178 5174 5170 5166 5162 5160 5157 5154 5152 5149 5147 5145 5143 5141 5140 5139 5138 5139 5141 5144 5147 5150 5151 5154 5156 5157 5158 5158 5160 5162 5163 5163 5163 5162 5160
5206 5200 5195 5191 5186 5183 5179 5174 5170 5167 5163 5159 5156 5154 5152 5150 5148 5146 5144 5142 5140 5138 5138 5136 5136 5139 5142 5146 5148 5151 5153 5156 5158 5160 5162 5163 5165 5167 5169 5169 5167 5165
5203 5198 5194 5188 5184 5180 5175 5171 5168 5163 5160 5157 5154 5151 5149 5148 5146 5145 5143 5141 5140 5138 5136 5135 5135 5137 5141 5144 5147 5150 5153 5156 5159 5161 5163 5165 5167 5170 5172 5173 5171 5169
5202 5196 5192 5186 5182 5177 5172 5169 5164 5160 5157 5154 5151 5149 5147 5145 5145 5144 5142 5141 5139 5137 5135 5133 5134 5136 5139 5142 5145 5148 5151 5154 5158 5161 5163 5166 5168 5171 5173 5174 5173 5171
5201 5195 5190 5184 5179 5174 5170 5166 5162 5158 5155 5151 5149 5147 5145 5144 5144 5142 5141 5139 5137 5136 5134 5132 5133 5135 5137 5140 5143 5146 5149 5152 5157 5160 5162 5164 5166 5168 5171 5172 5172 5171
5199 5193 5188 5182 5177 5172 5168 5164 5160 5156 5153 5149 5147 5145 5143 5143 5142 5140 5139 5137 5136 5135 5133 5131 5132 5134 5136 5138 5141 5144 5146 5150 5154 5156 5158 5160 5162 5164 5166 5167 5167 5168
5198 5192 5186 5180 5175 5170 5166 5162 5158 5154 5151 5147 5144 5142 5141 5141 5139 5138 5137 5137 5135 5134 5133 5132 5131 5132 5134 5136 5138 5141 5144 5147 5150 5152 5153 5155 5156 5158 5160 5160 5161 5163
5196 5190 5184 5178 5173 5168 5163 5160 5156 5151 5148 5145 5143 5141 5139 5139 5138 5136 5135 5135 5135 5134 5133 5131 5129 5130 5132 5134 5136 5139 5142 5144 5146 5147 5148 5149 5150 5152 5154 5155 5155 5156